When you browse on this site, cookies collect data to enhance your experience and personalize the content and advertising you see.
Visit our Privacy Policy to learn more. By continuing to use the site, you agree to this use of cookies and data.
  • En España
  • Lista de países
  • Para 7 días
  • Temperatura del agua
  • El tiempo en el mapa
  • Informadores
  • user-avatar
    Iniciar sesión

    Tiempo cada hora Strelichka

    Hoy, 24 Agosto, Sábado

    Tiempo Temperatura Precipitaciones Viento Presión Humedad
    00:00 +14°C° 0 mm 2 mps 747 mmHg 89%
    01:00 +14°C° 0 mm 2 mps 747 mmHg 90%
    02:00 +14°C° 0 mm 2 mps 747 mmHg 91%
    03:00 +14°C° 0 mm 2 mps 747 mmHg 91%
    04:00 +13°C° 0 mm 2 mps 747 mmHg 91%
    05:00 +13°C° 0 mm 2 mps 746 mmHg 91%
    06:00 +15°C° 0 mm 2 mps 747 mmHg 84%
    07:00 +17°C° 0 mm 2 mps 747 mmHg 78%
    08:00 +18°C° 0 mm 2 mps 747 mmHg 71%
    09:00 +21°C° 0 mm 1 mps 747 mmHg 65%
    10:00 +22°C° 0 mm 1 mps 747 mmHg 59%
    11:00 +23°C° 0 mm 1 mps 746 mmHg 52%
    12:00 +24°C° 0 mm 1 mps 746 mmHg 50%
    13:00 +24°C° 0 mm 1 mps 746 mmHg 48%
    14:00 +24°C° 0 mm 1 mps 746 mmHg 45%
    15:00 +24°C° 0 mm 2 mps 745 mmHg 50%
    16:00 +23°C° 0 mm 2 mps 745 mmHg 56%
    17:00 +23°C° 0 mm 2 mps 745 mmHg 61%
    18:00 +20°C° 0 mm 2 mps 745 mmHg 64%
    19:00 +19°C° 0 mm 2 mps 745 mmHg 67%
    20:00 +18°C° 0 mm 1 mps 745 mmHg 70%
    21:00 +18°C° 0 mm 1 mps 745 mmHg 72%
    22:00 +16°C° 0 mm 2 mps 745 mmHg 74%
    23:00 +16°C° 0 mm 2 mps 744 mmHg 77%

    Mañana, 25 Agosto, Domingo

    Tiempo Temperatura Precipitaciones Viento Presión Humedad
    00:00 +15°C° 0 mm 2 mps 744 mmHg 81%
    01:00 +15°C° 0 mm 2 mps 744 mmHg 84%
    02:00 +14°C° 0 mm 2 mps 745 mmHg 88%
    03:00 +14°C° 0 mm 2 mps 744 mmHg 90%
    04:00 +14°C° 0 mm 2 mps 744 mmHg 92%
    05:00 +14°C° 0 mm 2 mps 744 mmHg 95%
    06:00 +14°C° 0 mm 3 mps 745 mmHg 88%
    07:00 +17°C° 0 mm 3 mps 745 mmHg 82%
    08:00 +18°C° 0 mm 4 mps 745 mmHg 75%
    09:00 +19°C° 0 mm 4 mps 745 mmHg 69%
    10:00 +20°C° 0 mm 4 mps 746 mmHg 62%
    11:00 +21°C° 0 mm 4 mps 746 mmHg 56%
    12:00 +21°C° 0 mm 4 mps 746 mmHg 56%
    13:00 +22°C° 0 mm 4 mps 746 mmHg 56%
    14:00 +22°C° 0 mm 4 mps 746 mmHg 56%
    15:00 +21°C° 0 mm 4 mps 746 mmHg 59%
    16:00 +21°C° 0 mm 3 mps 746 mmHg 63%
    17:00 +20°C° 0 mm 3 mps 746 mmHg 66%
    18:00 +19°C° 0 mm 3 mps 746 mmHg 71%
    19:00 +17°C° 0 mm 3 mps 747 mmHg 75%
    20:00 +15°C° 0 mm 2 mps 747 mmHg 80%
    21:00 +15°C° 0 mm 2 mps 747 mmHg 81%
    22:00 +14°C° 0 mm 2 mps 747 mmHg 82%
    23:00 +14°C° 0 mm 2 mps 748 mmHg 83%

    Pasado mañana, 26 Agosto, Lunes

    Tiempo Temperatura Precipitaciones Viento Presión Humedad
    00:00 +13°C° 0 mm 2 mps 748 mmHg 85%
    01:00 +13°C° 0 mm 1 mps 748 mmHg 87%
    02:00 +12°C° 0 mm 1 mps 748 mmHg 90%
    03:00 +12°C° 0 mm 1 mps 748 mmHg 90%
    04:00 +12°C° 0 mm 1 mps 748 mmHg 90%
    05:00 +12°C° 0 mm 1 mps 748 mmHg 90%
    06:00 +13°C° 0 mm 1 mps 748 mmHg 83%
    07:00 +15°C° 0 mm 1 mps 748 mmHg 76%
    08:00 +18°C° 0 mm 1 mps 748 mmHg 68%
    09:00 +19°C° 0 mm 1 mps 748 mmHg 63%
    10:00 +20°C° 0 mm 1 mps 748 mmHg 58%
    11:00 +21°C° 0 mm 1 mps 748 mmHg 53%
    12:00 +22°C° 0 mm 1 mps 748 mmHg 51%
    13:00 +22°C° 0 mm 1 mps 748 mmHg 48%
    14:00 +21°C° 0 mm 0 mps 747 mmHg 46%
    15:00 +23°C° 0 mm 1 mps 747 mmHg 50%
    16:00 +22°C° 0 mm 1 mps 746 mmHg 53%
    17:00 +22°C° 0 mm 1 mps 746 mmHg 57%
    18:00 +20°C° 0 mm 1 mps 746 mmHg 61%
    19:00 +18°C° 0 mm 1 mps 746 mmHg 64%
    20:00 +16°C° 0 mm 1 mps 746 mmHg 68%
    21:00 +15°C° 0 mm 1 mps 745 mmHg 69%
    22:00 +15°C° 0 mm 1 mps 745 mmHg 69%
    23:00 +15°C° 0 mm 2 mps 745 mmHg 70%

    27 Agosto, Martes

    Tiempo Temperatura Precipitaciones Viento Presión Humedad
    00:00 +14°C° 0 mm 2 mps 745 mmHg 71%
    01:00 +14°C° 0 mm 2 mps 744 mmHg 73%
    02:00 +13°C° 0 mm 2 mps 744 mmHg 74%
    03:00 +13°C° 0 mm 2 mps 744 mmHg 76%
    04:00 +12°C° 0 mm 3 mps 744 mmHg 78%
    05:00 +12°C° 0 mm 3 mps 743 mmHg 79%
    06:00 +13°C° 0 mm 3 mps 743 mmHg 78%
    07:00 +16°C° 0 mm 3 mps 743 mmHg 76%
    08:00 +17°C° 0 mm 4 mps 743 mmHg 75%
    09:00 +19°C° 0 mm 4 mps 742 mmHg 70%
    10:00 +20°C° 0 mm 4 mps 742 mmHg 65%
    11:00 +21°C° 0 mm 5 mps 742 mmHg 61%
    12:00 +22°C° 0.1 mm 5 mps 741 mmHg 62%
    13:00 +22°C° 0.1 mm 6 mps 741 mmHg 63%
    14:00 +22°C° 0.1 mm 6 mps 740 mmHg 64%
    15:00 +21°C° 0.2 mm 6 mps 740 mmHg 68%
    16:00 +20°C° 0.2 mm 6 mps 740 mmHg 72%
    17:00 +19°C° 0.2 mm 6 mps 740 mmHg 76%
    18:00 +17°C° 0 mm 5 mps 740 mmHg 77%
    19:00 +16°C° 0 mm 5 mps 740 mmHg 79%
    20:00 +14°C° 0 mm 4 mps 740 mmHg 81%
    21:00 +14°C° 0 mm 5 mps 741 mmHg 81%
    22:00 +13°C° 0 mm 5 mps 741 mmHg 82%
    23:00 +12°C° 0 mm 5 mps 742 mmHg 82%

    28 Agosto, Miércoles

    Tiempo Temperatura Precipitaciones Viento Presión Humedad
    00:00 +10°C° 0 mm 5 mps 742 mmHg 82%
    01:00 +10°C° 0 mm 4 mps 742 mmHg 81%
    02:00 +7°C° 0 mm 4 mps 742 mmHg 81%
    03:00 +7°C° 0 mm 4 mps 743 mmHg 81%
    04:00 +7°C° 0 mm 3 mps 743 mmHg 82%
    05:00 +5°C° 0 mm 3 mps 743 mmHg 82%
    06:00 +6°C° 0 mm 4 mps 744 mmHg 77%
    07:00 +8°C° 0 mm 4 mps 744 mmHg 71%
    08:00 +9°C° 0 mm 5 mps 744 mmHg 65%
    09:00 +10°C° 0 mm 5 mps 744 mmHg 62%
    10:00 +11°C° 0 mm 6 mps 744 mmHg 58%
    11:00 +13°C° 0 mm 6 mps 744 mmHg 54%
    12:00 +14°C° 0 mm 6 mps 744 mmHg 52%
    13:00 +14°C° 0 mm 6 mps 744 mmHg 50%
    14:00 +15°C° 0 mm 6 mps 743 mmHg 48%
    15:00 +14°C° 0 mm 6 mps 743 mmHg 51%
    16:00 +14°C° 0 mm 5 mps 743 mmHg 54%
    17:00 +13°C° 0 mm 4 mps 744 mmHg 56%
    18:00 +12°C° 0 mm 4 mps 744 mmHg 61%
    19:00 +10°C° 0 mm 3 mps 744 mmHg 65%
    20:00 +9°C° 0 mm 3 mps 744 mmHg 69%
    21:00 +8°C° 0 mm 3 mps 744 mmHg 70%
    22:00 +7°C° 0 mm 3 mps 745 mmHg 72%
    23:00 +7°C° 0 mm 2 mps 745 mmHg 73%

    29 Agosto, Jueves

    Tiempo Temperatura Precipitaciones Viento Presión Humedad
    00:00 +6°C° 0 mm 2 mps 745 mmHg 75%
    01:00 +6°C° 0 mm 2 mps 745 mmHg 77%
    02:00 +5°C° 0 mm 2 mps 745 mmHg 79%
    03:00 +5°C° 0 mm 2 mps 745 mmHg 80%
    04:00 +5°C° 0 mm 2 mps 745 mmHg 81%
    05:00 +3°C° 0 mm 3 mps 745 mmHg 83%
    06:00 +5°C° 0 mm 3 mps 746 mmHg 77%
    07:00 +8°C° 0 mm 3 mps 746 mmHg 71%
    08:00 +10°C° 0 mm 4 mps 746 mmHg 66%
    09:00 +11°C° 0 mm 4 mps 745 mmHg 62%
    10:00 +12°C° 0 mm 4 mps 745 mmHg 58%
    11:00 +14°C° 0 mm 4 mps 745 mmHg 53%
    12:00 +14°C° 0 mm 4 mps 745 mmHg 52%
    13:00 +15°C° 0 mm 5 mps 744 mmHg 51%
    14:00 +15°C° 0 mm 5 mps 744 mmHg 50%
    15:00 +15°C° 0 mm 4 mps 744 mmHg 53%
    16:00 +16°C° 0 mm 3 mps 744 mmHg 57%
    17:00 +14°C° 0 mm 3 mps 744 mmHg 61%
    18:00 +13°C° 0 mm 3 mps 744 mmHg 62%
    19:00 +12°C° 0 mm 3 mps 744 mmHg 63%
    20:00 +11°C° 0 mm 4 mps 744 mmHg 64%
    21:00 +9°C° 0 mm 3 mps 744 mmHg 69%
    22:00 +8°C° 0 mm 3 mps 744 mmHg 74%
    23:00 +7°C° 0 mm 2 mps 745 mmHg 79%
    Mostrar más